Location: Unspecified
(43.4680°N, 87.1740°E)
Time: 20:40:27
(UTC+00:00)

Cosmos 1812 Rocket - Pass Details

Date: 17 April 2021
Orbit: 606 x 632 km, 82.5° (Epoch: 12 May)

Event Time Altitude Azimuth Distance (km) Brightness Sun altitude
Exits shadow 15:40:22 41° 244° (WSW) 917 4.4 -25.9°
Maximum altitude 15:41:19 48° 282° (WNW) 824 4.4 -26.0°
Drops below altitude 10° 15:45:39 10° 357° (N) 2,017 6.8 -26.5°
Sets 15:47:59 0° 3° (N) 2,932 7.7 -26.8°
